Zurück zum Katalog

COSMOS 249 DEB *

AktivLEO
NORAD 6176·DEBRIS·🇷🇺 Russia

Gestartet Oct 20, 1968 von Baikonur Cosmodrome

Loading…

Nächste Überflüge (nächste 24 Stunden)

TLE

AktuellSource: Space-Track

Epoche: Sep 14, 2026, 08:26 UTC

1 06176U 68091CG  26257.35191359 -.00000003  00000-0  11387-3 0  9999
2 06176  65.7283  30.1855 0465083   1.8505 358.4109 13.08546497170858

Verfolge COSMOS 249 DEB * in Echtzeit mit AllMySat

Download on the App Store